Weather in Grigoryevka

Russia / Orenburg Oblast     51°06′18″N   55°18′08″E
temp.,
°C
wind,
m/s
gust,
m/s
humid.,
%
clouds,
%
prec.,
mm/h
press.,
hPa
HPBL,
m
28 february, sun
sun2823:00+1sw51098100 0.1 1003423
02:00+1sw61098100 0.1 1001489
05:000wsw61098100 0.5 1000489
08:00−1sw61096100 0.9 1000458
11:00−1wsw71196100 1.9 1001706
14:00−3w81096100 1.3 1003434
17:00−10w71192100 1.5 1006494
20:00−14w61094100 0.1 1009338
1 march, mon
mon123:00−15wsw589597 0.2 1012258
02:00−16wsw5895100 0.1 1013244
05:00−17wsw479699 0.2 1015201
08:00−18wsw479788 0.1 1017165
11:00−16wsw469592 0.2 1019227
14:00−14wsw469597 0.0 1020294
17:00−13wsw469398 0.1 1021403
20:00−14wsw489699 0.1 1022219
2 march, tue
tue223:00−17w469895 0.2 1023126
02:00−21w4410081 0.0 102374
05:00−23wsw449975 0.0 102372
08:00−24wsw349964 0.0 102347
11:00−19sw579566 0.0 1022234
14:00−15sw7119288 0.0 1020359
17:00−11ssw8139294 0.0 1017483
20:00−7sw91694100 0.4 1014699
3 march, wed
wed323:00−4sw91594100 1.4 1011785
02:00−3sw91595100 1.3 1008737
05:00−3sw91496100 3.1 1007745
08:00−2sw81396100 1.6 1006639
11:00−1sw71196100 2.8 1006674
14:00−1sw6997100 0.8 1005640
17:00−1wsw5897100 1.5 1005528
20:00−2wsw3498100 0.8 1005129
4 march, thu
thu423:00−3wnw3498100 1.4 1006125
02:00−6nnw3694100 0.4 1006143
05:00−9nw469599 0.4 1007108
08:00−12wnw459552 0.0 101082
11:00−9wnw589226 0.0 1013272
14:00−7w599362 0.0 1014381
17:00−7wsw5109066 0.0 1015440
20:00−9sw6139222 0.0 1015309